This demonstration page uses our WeatherBlox Daily Observations layout. Learn more.

Left ArrowRight Arrow

44.8408, -93.29828

Hourly Observations for July 5, 2022

Temp ( °F °C ) Dew Point ( °F °C ) Humidity (%) Winds ( mph kmh ) Pressure ( in mb ) Visibility ( mi km ) Precip ( " mm )
12:53 am 00:53 Clear 74 23.3 72 22.2 94 94 Calm 29.83 1010 7 11 0.00 0.00
1:53 am 01:53 Clear 73 22.8 71 21.7 94 94 SSE 6 9 29.82 1010 7 11 0.00 0.00
2:53 am 02:53 Clear with Mist and Fog 73 22.8 71 21.7 94 94 SSE 5 7 29.82 1010 6 10 0.00 0.00
3:10 am 03:10 Partly Cloudy with Mist and Fog 73 22.8 71 21.7 94 94 SE 5 7 29.81 1009 5 8 0.00 0.00
3:19 am 03:19 Mostly Cloudy with Mist and Fog 72 22.2 71 21.7 97 97 ESE 3 6 29.81 1010 5 8 0.00 0.00
3:53 am 03:53 Cloudy with Mist and Fog 72 22.2 71 21.7 97 97 ESE 5 7 29.82 1010 4 6 0.00 0.00
4:42 am 04:42 Cloudy with Fog 72 22.2 70 21.1 94 94 NE 3 6 29.82 1010 0 0 0.00 0.00
4:53 am 04:53 Mostly Cloudy with Fog 72 22.2 70 21.1 94 94 NNE 3 6 29.83 1010 0 0 0.00 0.00
5:03 am 05:03 Mostly Cloudy with Fog 72 22.2 70 21.1 94 94 Calm 29.82 1010 N/A 0.00 0.00
5:11 am 05:11 Mostly Cloudy with Fog 71 21.7 71 21.7 100 100 Calm 29.82 1010 1 2 0.00 0.00
5:53 am 05:53 Mostly Cloudy with Fog 72 22.2 71 21.7 97 97 ESE 3 6 29.84 1010 1 2 0.00 0.00
6:53 am 06:53 Mostly Cloudy with Fog 72 22.2 71 21.7 97 97 SSE 3 6 29.84 1011 0 0 0.00 0.00
7:11 am 07:11 Mostly Cloudy with Fog 72 22.2 71 21.7 97 97 SE 3 6 29.83 1010 0 0 0.00 0.00
7:23 am 07:23 Mostly Cloudy with Fog 72 22.2 71 21.7 97 97 Calm 29.83 1010 0 0 0.00 0.00
7:38 am 07:38 Mostly Cloudy with Fog 72 22.2 71 21.7 97 97 Calm 29.84 1011 1 1 0.00 0.00
7:49 am 07:49 Mostly Cloudy with Mist and Fog 72 22 72 22 100 100 Calm 29.84 1011 1 1 0.00 0.00
7:53 am 07:53 Mostly Cloudy with Mist and Fog 72 22.2 72 22.2 100 100 Calm 29.85 1011 1 1 0.00 0.00
8:15 am 08:15 Cloudy with Mist and Fog 74 23.3 71 21.7 91 91 VRB 5 7 29.83 1010 1 1 0.00 0.00
8:22 am 08:22 Mostly Cloudy with Fog 74 23.3 72 22.2 94 94 E 3 6 29.84 1010 1 1 0.00 0.00
8:30 am 08:30 Cloudy with Mist and Fog 73 22.8 72 22.2 96 96 Calm 29.84 1010 1 1 0.00 0.00
8:37 am 08:37 Cloudy with Mist and Fog 74 23.3 71 21.7 91 91 NE 3 6 29.84 1010 1 2 0.00 0.00
8:45 am 08:45 Cloudy with Mist and Fog 74 23.3 72 22.2 94 94 NE 5 7 29.84 1010 2 3 0.00 0.00
8:53 am 08:53 Cloudy with Mist and Fog 74 23.3 72 22.2 94 94 NNE 3 6 29.85 1011 2 3 0.00 0.00
9:03 am 09:03 Cloudy with Mist and Fog 75 23.9 72 22.2 90 90 VRB 3 6 29.85 1011 4 6 0.00 0.00
9:27 am 09:27 Cloudy with Haze 77 25 72 22.2 85 85 VRB 5 7 29.84 1011 5 8 0.00 0.00
9:53 am 09:53 Cloudy with Haze 79 26.1 72 22.2 79 79 NNE 6 9 29.86 1011 5 8 0.00 0.00
10:28 am 10:28 Partly Cloudy 80 26.7 72 22.2 76 76 NNE 6 9 29.84 1010 7 11 0.00 0.00
10:53 am 10:53 Partly Cloudy 82 27.8 72 22.2 72 72 NE 9 15 29.86 1011 9 14 0.00 0.00
11:53 am 11:53 Partly Cloudy 83 28.3 71 21.7 67 67 NNE 9 15 29.87 1012 10 16 0.00 0.00
12:53 pm 12:53 Mostly Sunny 83 28.3 71 21.7 67 67 NE 9 15 29.87 1012 10 16 0.00 0.00
1:53 pm 13:53 Partly Cloudy 85 29.4 71 21.7 63 63 NE 9 15 29.85 1011 10 16 0.00 0.00
2:53 pm 14:53 Partly Cloudy 88 31.1 70 21.1 55 55 VRB 7 11 29.84 1011 10 16 0.00 0.00
3:53 pm 15:53 Mostly Cloudy 89 31.7 68 20 50 50 N 9 15 29.85 1011 10 16 0.00 0.00
4:53 pm 16:53 Cloudy 87 30.6 68 20 53 53 N 10 17 29.83 1010 10 16 0.00 0.00
5:53 pm 17:53 Cloudy 82 27.8 71 21.7 69 69 NNE 13 20 29.85 1011 10 16 0.00 0.00
6:53 pm 18:53 Cloudy 80 26.7 70 21.1 71 71 NNE 10 17 29.83 1010 10 16 0.00 0.00
7:53 pm 19:53 Cloudy 80 26.7 68 20 67 67 NE 12 19 29.81 1010 10 16 0.00 0.00
8:53 pm 20:53 Mostly Cloudy 78 25.6 70 21.1 76 76 NE 9 15 29.88 1012 10 16 0.00 0.00
9:09 pm 21:09 Mostly Cloudy 78 25.6 69 20.6 74 74 E 13 20 29.85 1011 10 16 0.00 0.00
9:53 pm 21:53 Mostly Cloudy 78 25.6 68 20 71 71 ENE 12 19 29.85 1011 10 16 0.00 0.00
10:53 pm 22:53 Mostly Cloudy 77 25 67 19.4 71 71 NNE 9 15 29.88 1012 10 16 0.00 0.00
11:53 pm 23:53 Mostly Cloudy 76 24.4 66 18.9 72 72 NNE 9 15 29.89 1012 10 16 0.00 0.00

Powered by AerisWeather